Regional Weather Roundup
Issued by NWS

Home | Current Version | Previous Version | Graphics & Text | Print | Product List | Glossary On
Versions: 1 2 3 4 5 6 7 8 9 10 11 12 13 14 15 16 17 18 19 20 21 22 23 24 25 26 27 28 29 30 31 32 33 34 35 36 37 38 39 40 41 42 43 44 45 46 47 48 49 50
000
ASUS43 KFSD 252310
RWRSD

WEATHER ROUNDUP FOR SOUTH DAKOTA
NATIONAL WEATHER SERVICE SIOUX FALLS SD
600 PM CDT WED MAY 25 2016

NOTE: "FAIR" INDICATES FEW OR NO CLOUDS BELOW 12,000 FEET WITH NO
SIGNIFICANT WEATHER AND/OR OBSTRUCTIONS TO VISIBILITY.


SDZ001>005-009-010-012>017-260000-
NORTHWEST AND NORTH CENTRAL SOUTH DAKOTA

CITY           SKY/WX    TMP DP  RH WIND       PRES   REMARKS
BUFFALO          N/A     66  42  41 NW15G26   29.80R
FAITH            N/A     68  42  38 NW20G26   29.82S
MOBRIDGE       CLOUDY    70  54  56 W20G29    29.72S
$$

SDZ012>016-024>037-041>051-057-063-072>074-260000-
SOUTHWEST AND SOUTH CENTRAL SOUTH DAKOTA

CITY           SKY/WX    TMP DP  RH WIND       PRES   REMARKS
RAPID CTY ARPT MOSUNNY   65  46  50 NE13      29.87S
PIERRE         CLOUDY    68  51  54 VRB5      29.76F
CUSTER         CLOUDY    57  37  47 W9G18     29.95R
ELLSWORTH AFB  SUNNY     68  45  43 N12       29.86F
PHILIP         SUNNY     67  53  61 NW10G21   29.83S
PINE RIDGE     CLOUDY    70  42  36 NW9G16    29.88R
WINNER         LGT RAIN  74  50  42 NW15G22   29.79R
$$

SDZ004>011-016>023-039-040-260000-
NORTHEAST SOUTH DAKOTA

CITY           SKY/WX    TMP DP  RH WIND       PRES   REMARKS
ABERDEEN       MOSUNNY   77  58  51 W10       29.73S
WATERTOWN      MOSUNNY   76  58  53 SW15G24   29.77S
BROOKINGS      MOSUNNY   76  60  57 SW12      29.78F
SISSETON         N/A     77  58  51 W15       29.72S
$$

SDZ017-020-022-023-036>040-048>070-260000-
SOUTHEAST SOUTH DAKOTA

CITY           SKY/WX    TMP DP  RH WIND       PRES   REMARKS
SIOUX FALLS    MOSUNNY   79  62  56 W6        29.79S
HURON          MOSUNNY   77  58  51 NW3       29.76S
CHAMBERLAIN    CLOUDY    77  59  53 W6        29.78S
MITCHELL       MOSUNNY   75  60  59 W3        29.78S
YANKTON        MOSUNNY   81  59  47 SW6       29.76S
$$

ABBREVIATIONS USED IN REMARKS
   TC - TEMPERATURE IN CELSIUS
  WCI - WIND CHILL INDEX
   HX - HEAT INDEX
  VSB - VISIBILITY





USA.gov is the U.S. government's official web portal to all federal, state and local government web resources and services.